Year,Month,Day,Hour,Minute,Value (Times are PST for temperature in C)
2017,06,26,00,00,20.90
2017,06,26,00,01,21.00
2017,06,26,00,02,20.90
2017,06,26,00,03,21.00
2017,06,26,00,04,21.00
2017,06,26,00,05,21.00
2017,06,26,00,06,21.00
2017,06,26,00,07,21.00
2017,06,26,00,08,21.00
2017,06,26,00,09,21.00
2017,06,26,00,10,21.00
2017,06,26,00,11,21.00
2017,06,26,00,12,21.00
2017,06,26,00,13,21.00
2017,06,26,00,14,21.00
2017,06,26,00,15,20.90
2017,06,26,00,16,20.90
2017,06,26,00,17,20.80
2017,06,26,00,18,20.80
2017,06,26,00,19,20.80
2017,06,26,00,20,20.80
2017,06,26,00,21,20.70
2017,06,26,00,22,20.70
2017,06,26,00,23,20.70
2017,06,26,00,24,20.70
2017,06,26,00,25,20.70
2017,06,26,00,26,20.70
2017,06,26,00,27,20.60
2017,06,26,00,28,20.60
2017,06,26,00,29,20.60
2017,06,26,00,30,20.60
2017,06,26,00,31,20.60
2017,06,26,00,32,20.60
2017,06,26,00,33,20.60
2017,06,26,00,34,20.60
2017,06,26,00,35,20.60
2017,06,26,00,36,20.60
2017,06,26,00,37,20.60
2017,06,26,00,38,20.60
2017,06,26,00,39,20.60
2017,06,26,00,40,20.60
2017,06,26,00,41,20.60
2017,06,26,00,42,20.60
2017,06,26,00,43,20.60
2017,06,26,00,44,20.60
2017,06,26,00,45,20.60
2017,06,26,00,46,20.60
2017,06,26,00,47,20.60
2017,06,26,00,48,20.60
2017,06,26,00,49,20.60
2017,06,26,00,50,20.60
2017,06,26,00,51,20.60
2017,06,26,00,52,20.60
2017,06,26,00,53,20.60
2017,06,26,00,54,20.50
2017,06,26,00,55,20.50
2017,06,26,00,56,20.50
2017,06,26,00,57,20.50
2017,06,26,00,58,20.50
2017,06,26,00,59,20.50
2017,06,26,01,00,20.50
2017,06,26,01,01,20.50
2017,06,26,01,02,20.50
2017,06,26,01,03,20.40
2017,06,26,01,04,20.40
2017,06,26,01,05,20.40
2017,06,26,01,06,20.40
2017,06,26,01,07,20.40
2017,06,26,01,08,20.40
2017,06,26,01,09,20.40
2017,06,26,01,10,20.50
2017,06,26,01,11,20.50
2017,06,26,01,12,20.50
2017,06,26,01,13,20.60
2017,06,26,01,14,20.60
2017,06,26,01,15,20.60
2017,06,26,01,16,20.70
2017,06,26,01,17,20.70
2017,06,26,01,18,20.80
2017,06,26,01,19,20.80
2017,06,26,01,20,20.90
2017,06,26,01,21,20.90
2017,06,26,01,22,20.90
2017,06,26,01,23,21.00
2017,06,26,01,24,21.00
2017,06,26,01,25,21.10
2017,06,26,01,26,21.20
2017,06,26,01,27,21.30
2017,06,26,01,28,21.30
2017,06,26,01,29,21.40
2017,06,26,01,30,21.40
2017,06,26,01,31,21.50
2017,06,26,01,32,21.50
2017,06,26,01,33,21.50
2017,06,26,01,34,21.60
2017,06,26,01,35,21.50
2017,06,26,01,36,21.50
2017,06,26,01,37,21.50
2017,06,26,01,38,21.50
2017,06,26,01,39,21.50
2017,06,26,01,40,21.50
2017,06,26,01,41,21.50
2017,06,26,01,42,21.60
2017,06,26,01,43,21.60
2017,06,26,01,44,21.70
2017,06,26,01,45,21.70
2017,06,26,01,46,21.70
2017,06,26,01,47,21.70
2017,06,26,01,48,21.70
2017,06,26,01,49,21.70
2017,06,26,01,50,21.70
2017,06,26,01,51,21.70
2017,06,26,01,52,21.70
2017,06,26,01,53,21.80
2017,06,26,01,54,21.80
2017,06,26,01,55,21.90
2017,06,26,01,56,22.00
2017,06,26,01,57,22.10
2017,06,26,01,58,22.10
2017,06,26,01,59,22.10
2017,06,26,02,00,22.20
2017,06,26,02,01,22.20
2017,06,26,02,02,22.20
2017,06,26,02,03,22.30
2017,06,26,02,04,22.30
2017,06,26,02,05,22.40
2017,06,26,02,06,22.40
2017,06,26,02,07,22.50
2017,06,26,02,08,22.50
2017,06,26,02,09,22.50
2017,06,26,02,10,22.50
2017,06,26,02,11,22.50
2017,06,26,02,12,22.40
2017,06,26,02,13,22.40
2017,06,26,02,14,22.40
2017,06,26,02,15,22.40
2017,06,26,02,16,22.30
2017,06,26,02,17,22.40
2017,06,26,02,18,22.40
2017,06,26,02,19,22.40
2017,06,26,02,20,22.40
2017,06,26,02,21,22.40
2017,06,26,02,22,22.40
2017,06,26,02,23,22.30
2017,06,26,02,24,22.30
2017,06,26,02,25,22.30
2017,06,26,02,26,22.20
2017,06,26,02,27,22.20
2017,06,26,02,28,22.20
2017,06,26,02,29,22.20
2017,06,26,02,30,22.10
2017,06,26,02,31,22.10
2017,06,26,02,32,22.10
2017,06,26,02,33,22.10
2017,06,26,02,34,22.10
2017,06,26,02,35,22.10
2017,06,26,02,36,22.00
2017,06,26,02,37,22.00
2017,06,26,02,38,22.00
2017,06,26,02,39,22.00
2017,06,26,02,40,22.00
2017,06,26,02,41,21.90
2017,06,26,02,42,21.90
2017,06,26,02,43,21.90
2017,06,26,02,44,21.90
2017,06,26,02,45,21.90
2017,06,26,02,46,21.90
2017,06,26,02,47,21.90
2017,06,26,02,48,21.90
2017,06,26,02,49,21.80
2017,06,26,02,50,21.80
2017,06,26,02,51,21.80
2017,06,26,02,52,21.80
2017,06,26,02,53,21.90
2017,06,26,02,54,21.90
2017,06,26,02,55,21.90
2017,06,26,02,56,21.90
2017,06,26,02,57,21.90
2017,06,26,02,58,21.90
2017,06,26,02,59,21.90
2017,06,26,03,00,21.90
2017,06,26,03,01,21.80
2017,06,26,03,02,21.80
2017,06,26,03,03,21.80
2017,06,26,03,04,21.90
2017,06,26,03,05,21.90
2017,06,26,03,06,21.90
2017,06,26,03,07,21.90
2017,06,26,03,08,21.90
2017,06,26,03,09,21.90
2017,06,26,03,10,21.90
2017,06,26,03,11,21.90
2017,06,26,03,12,21.90
2017,06,26,03,13,21.80
2017,06,26,03,14,21.80
2017,06,26,03,15,21.80
2017,06,26,03,16,21.80
2017,06,26,03,17,21.70
2017,06,26,03,18,21.70
2017,06,26,03,19,21.60
2017,06,26,03,20,21.50
2017,06,26,03,21,21.40
2017,06,26,03,22,21.30
2017,06,26,03,23,21.20
2017,06,26,03,24,21.20
2017,06,26,03,25,21.10
2017,06,26,03,26,21.10
2017,06,26,03,27,21.10
2017,06,26,03,28,21.10
2017,06,26,03,29,21.10
2017,06,26,03,30,21.10
2017,06,26,03,31,21.10
2017,06,26,03,32,21.10
2017,06,26,03,33,21.10
2017,06,26,03,34,21.10
2017,06,26,03,35,21.10
2017,06,26,03,36,21.10
2017,06,26,03,37,21.10
2017,06,26,03,38,21.00
2017,06,26,03,39,21.00
2017,06,26,03,40,20.90
2017,06,26,03,41,20.80
2017,06,26,03,42,20.80
2017,06,26,03,43,20.70
2017,06,26,03,44,20.50
2017,06,26,03,45,20.40
2017,06,26,03,46,20.40
2017,06,26,03,47,20.30
2017,06,26,03,48,20.20
2017,06,26,03,49,20.10
2017,06,26,03,50,20.10
2017,06,26,03,51,20.00
2017,06,26,03,52,20.00
2017,06,26,03,53,19.90
2017,06,26,03,54,19.90
2017,06,26,03,55,19.90
2017,06,26,03,56,19.80
2017,06,26,03,57,19.70
2017,06,26,03,58,19.60
2017,06,26,03,59,19.50
2017,06,26,04,00,19.40
2017,06,26,04,01,19.30
2017,06,26,04,02,19.20
2017,06,26,04,03,19.10
2017,06,26,04,04,19.10
2017,06,26,04,05,19.00
2017,06,26,04,06,18.90
2017,06,26,04,07,18.80
2017,06,26,04,08,18.80
2017,06,26,04,09,18.70
2017,06,26,04,10,18.70
2017,06,26,04,11,18.60
2017,06,26,04,12,18.60
2017,06,26,04,13,18.50
2017,06,26,04,14,18.50
2017,06,26,04,15,18.40
2017,06,26,04,16,18.40
2017,06,26,04,17,18.40
2017,06,26,04,18,18.40
2017,06,26,04,19,18.40
2017,06,26,04,20,18.30
2017,06,26,04,21,18.30
2017,06,26,04,22,18.30
2017,06,26,04,23,18.20
2017,06,26,04,24,18.20
2017,06,26,04,25,18.10
2017,06,26,04,26,18.10
2017,06,26,04,27,18.00
2017,06,26,04,28,18.00
2017,06,26,04,29,18.00
2017,06,26,04,30,17.90
2017,06,26,04,31,17.90
2017,06,26,04,32,17.80
2017,06,26,04,33,17.80
2017,06,26,04,34,17.70
2017,06,26,04,35,17.70
2017,06,26,04,36,17.60
2017,06,26,04,37,17.50
2017,06,26,04,38,17.50
2017,06,26,04,39,17.40
2017,06,26,04,40,17.40
2017,06,26,04,41,17.40
2017,06,26,04,42,17.30
2017,06,26,04,43,17.30
2017,06,26,04,44,17.30
2017,06,26,04,45,17.30
2017,06,26,04,46,17.30
2017,06,26,04,47,17.20
2017,06,26,04,48,17.20
2017,06,26,04,49,17.20
2017,06,26,04,50,17.10
2017,06,26,04,51,17.10
2017,06,26,04,52,17.00
2017,06,26,04,53,17.00
2017,06,26,04,54,16.90
2017,06,26,04,55,16.90
2017,06,26,04,56,16.90
2017,06,26,04,57,16.80
2017,06,26,04,58,16.80
2017,06,26,04,59,16.80
2017,06,26,05,00,16.70
2017,06,26,05,01,16.70
2017,06,26,05,02,16.70
2017,06,26,05,03,16.70
2017,06,26,05,04,16.60
2017,06,26,05,05,16.60
2017,06,26,05,06,16.60
2017,06,26,05,07,16.60
2017,06,26,05,08,16.60
2017,06,26,05,09,16.60
2017,06,26,05,10,16.60
2017,06,26,05,11,16.60
2017,06,26,05,12,16.50
2017,06,26,05,13,16.60
2017,06,26,05,14,16.60
2017,06,26,05,15,16.60
2017,06,26,05,16,16.50
2017,06,26,05,17,16.50
2017,06,26,05,18,16.50
2017,06,26,05,19,16.40
2017,06,26,05,20,16.40
2017,06,26,05,21,16.30
2017,06,26,05,22,16.30
2017,06,26,05,23,16.30
2017,06,26,05,24,16.20
2017,06,26,05,25,16.20
2017,06,26,05,26,16.20
2017,06,26,05,27,16.10
2017,06,26,05,28,16.10
2017,06,26,05,29,16.00
2017,06,26,05,30,16.00
2017,06,26,05,31,15.90
2017,06,26,05,32,15.90
2017,06,26,05,33,15.90
2017,06,26,05,34,15.80
2017,06,26,05,35,15.80
2017,06,26,05,36,15.80
2017,06,26,05,37,15.80
2017,06,26,05,38,15.80
2017,06,26,05,39,15.80
2017,06,26,05,40,15.80
2017,06,26,05,41,15.90
2017,06,26,05,42,15.80
2017,06,26,05,43,15.90
2017,06,26,05,44,15.90
2017,06,26,05,45,15.90
2017,06,26,05,46,15.90
2017,06,26,05,47,15.90
2017,06,26,05,48,15.90
2017,06,26,05,49,15.90
2017,06,26,05,50,15.90
2017,06,26,05,51,15.80
2017,06,26,05,52,15.80
2017,06,26,05,53,15.80
2017,06,26,05,54,15.80
2017,06,26,05,55,15.80
2017,06,26,05,56,15.70
2017,06,26,05,57,15.70
2017,06,26,05,58,15.70
2017,06,26,05,59,15.70
2017,06,26,06,00,15.70
2017,06,26,06,01,15.70
2017,06,26,06,02,15.80
2017,06,26,06,03,15.80
2017,06,26,06,04,15.80
2017,06,26,06,05,15.80
2017,06,26,06,06,15.80
2017,06,26,06,07,15.80
2017,06,26,06,08,15.80
2017,06,26,06,09,15.90
2017,06,26,06,10,15.90
2017,06,26,06,11,15.90
2017,06,26,06,12,16.00
2017,06,26,06,13,16.00
2017,06,26,06,14,16.00
2017,06,26,06,15,16.10
2017,06,26,06,16,16.10
2017,06,26,06,17,16.10
2017,06,26,06,18,16.10
2017,06,26,06,19,16.20
2017,06,26,06,20,16.20
2017,06,26,06,21,16.20
2017,06,26,06,22,16.30
2017,06,26,06,23,16.30
2017,06,26,06,24,16.30
2017,06,26,06,25,16.30
2017,06,26,06,26,16.30
2017,06,26,06,27,16.30
2017,06,26,06,28,16.30
2017,06,26,06,29,16.40
2017,06,26,06,30,16.50
2017,06,26,06,31,16.50
2017,06,26,06,32,16.60
2017,06,26,06,33,16.70
2017,06,26,06,34,16.70
2017,06,26,06,35,16.80
2017,06,26,06,36,16.80
2017,06,26,06,37,16.80
2017,06,26,06,38,16.90
2017,06,26,06,39,16.90
2017,06,26,06,40,16.90
2017,06,26,06,41,17.00
2017,06,26,06,42,17.00
2017,06,26,06,43,17.00
2017,06,26,06,44,17.10
2017,06,26,06,45,17.10
2017,06,26,06,46,17.10
2017,06,26,06,47,17.10
2017,06,26,06,48,17.10
2017,06,26,06,49,17.10
2017,06,26,06,50,17.10
2017,06,26,06,51,17.10
2017,06,26,06,52,17.10
2017,06,26,06,53,17.10
2017,06,26,06,54,17.10
2017,06,26,06,55,17.10
2017,06,26,06,56,17.10
2017,06,26,06,57,17.00
2017,06,26,06,58,17.00
2017,06,26,06,59,16.90
2017,06,26,07,00,16.90
2017,06,26,07,01,16.90
2017,06,26,07,02,16.80
2017,06,26,07,03,16.80
2017,06,26,07,04,16.80
2017,06,26,07,05,16.80
2017,06,26,07,06,16.90
2017,06,26,07,07,16.90
2017,06,26,07,08,17.00
2017,06,26,07,09,17.10
2017,06,26,07,10,17.20
2017,06,26,07,11,17.20
2017,06,26,07,12,17.30
2017,06,26,07,13,17.40
2017,06,26,07,14,17.40
2017,06,26,07,15,17.50
2017,06,26,07,16,17.60
2017,06,26,07,17,17.60
2017,06,26,07,18,17.70
2017,06,26,07,19,17.80
2017,06,26,07,20,17.80
2017,06,26,07,21,17.80
2017,06,26,07,22,17.80
2017,06,26,07,23,17.80
2017,06,26,07,24,17.80
2017,06,26,07,25,17.80
2017,06,26,07,26,17.80
2017,06,26,07,27,17.70
2017,06,26,07,28,17.70
2017,06,26,07,29,17.70
2017,06,26,07,30,17.70
2017,06,26,07,31,17.60
2017,06,26,07,32,17.60
2017,06,26,07,33,17.60
2017,06,26,07,34,17.60
2017,06,26,07,35,17.60
2017,06,26,07,36,17.60
2017,06,26,07,37,17.60
2017,06,26,07,38,17.60
2017,06,26,07,39,17.70
2017,06,26,07,40,17.70
2017,06,26,07,41,17.80
2017,06,26,07,42,17.90
2017,06,26,07,43,18.00
2017,06,26,07,44,18.10
2017,06,26,07,45,18.30
2017,06,26,07,46,18.40
2017,06,26,07,47,18.50
2017,06,26,07,48,18.60
2017,06,26,07,49,18.60
2017,06,26,07,50,18.70
2017,06,26,07,51,18.80
2017,06,26,07,52,18.80
2017,06,26,07,53,18.80
2017,06,26,07,54,18.80
2017,06,26,07,55,18.90
2017,06,26,07,56,18.90
2017,06,26,07,57,18.90
2017,06,26,07,58,18.80
2017,06,26,07,59,18.80
2017,06,26,08,00,18.80
2017,06,26,08,01,18.80
2017,06,26,08,02,18.90
2017,06,26,08,03,18.90
2017,06,26,08,04,19.00
2017,06,26,08,05,19.00
2017,06,26,08,06,19.10
2017,06,26,08,07,19.20
2017,06,26,08,08,19.20
2017,06,26,08,09,19.20
2017,06,26,08,10,19.20
2017,06,26,08,11,19.30
2017,06,26,08,12,19.30
2017,06,26,08,13,19.30
2017,06,26,08,14,19.30
2017,06,26,08,15,19.30
2017,06,26,08,16,19.30
2017,06,26,08,17,19.20
2017,06,26,08,18,19.10
2017,06,26,08,19,19.00
2017,06,26,08,20,18.90
2017,06,26,08,21,18.80
2017,06,26,08,22,18.70
2017,06,26,08,23,18.60
2017,06,26,08,24,18.50
2017,06,26,08,25,18.40
2017,06,26,08,26,18.40
2017,06,26,08,27,18.30
2017,06,26,08,28,18.20
2017,06,26,08,29,18.10
2017,06,26,08,30,18.10
2017,06,26,08,31,18.00
2017,06,26,08,32,17.90
2017,06,26,08,33,17.90
2017,06,26,08,34,17.80
2017,06,26,08,35,17.80
2017,06,26,08,36,17.70
2017,06,26,08,37,17.70
2017,06,26,08,38,17.70
2017,06,26,08,39,17.80
2017,06,26,08,40,17.80
2017,06,26,08,41,17.80
2017,06,26,08,42,17.90
2017,06,26,08,43,17.90
2017,06,26,08,44,17.90
2017,06,26,08,45,18.00
2017,06,26,08,46,18.00
2017,06,26,08,47,18.10
2017,06,26,08,48,18.10
2017,06,26,08,49,18.10
2017,06,26,08,50,18.20
2017,06,26,08,51,18.20
2017,06,26,08,52,18.20
2017,06,26,08,53,18.20
2017,06,26,08,54,18.10
2017,06,26,08,55,18.10
2017,06,26,08,56,18.10
2017,06,26,08,57,18.10
2017,06,26,08,58,18.20
2017,06,26,08,59,18.20
2017,06,26,09,00,18.20
2017,06,26,09,01,18.10
2017,06,26,09,02,18.00
2017,06,26,09,03,17.90
2017,06,26,09,04,17.90
2017,06,26,09,05,17.80
2017,06,26,09,06,17.80
2017,06,26,09,07,17.70
2017,06,26,09,08,17.70
2017,06,26,09,09,17.60
2017,06,26,09,10,17.60
2017,06,26,09,11,17.60
2017,06,26,09,12,17.70
2017,06,26,09,13,17.70
2017,06,26,09,14,17.70
2017,06,26,09,15,17.70
2017,06,26,09,16,17.80
2017,06,26,09,17,17.80
2017,06,26,09,18,17.90
2017,06,26,09,19,18.00
2017,06,26,09,20,18.10
2017,06,26,09,21,18.20
2017,06,26,09,22,18.30
2017,06,26,09,23,18.40
2017,06,26,09,24,18.50
2017,06,26,09,25,18.60
2017,06,26,09,26,18.70
2017,06,26,09,27,18.80
2017,06,26,09,28,18.90
2017,06,26,09,29,19.00
2017,06,26,09,30,19.10
2017,06,26,09,31,19.20
2017,06,26,09,32,19.20
2017,06,26,09,33,19.30
2017,06,26,09,34,19.40
2017,06,26,09,35,19.40
2017,06,26,09,36,19.50
2017,06,26,09,37,19.60
2017,06,26,09,38,19.60
2017,06,26,09,39,19.70
2017,06,26,09,40,19.70
2017,06,26,09,41,19.70
2017,06,26,09,42,19.80
2017,06,26,09,43,19.80
2017,06,26,09,44,19.90
2017,06,26,09,45,19.90
2017,06,26,09,46,20.00
2017,06,26,09,47,20.00
2017,06,26,09,48,20.00
2017,06,26,09,49,20.00
2017,06,26,09,50,20.10
2017,06,26,09,51,20.10
2017,06,26,09,52,20.10
2017,06,26,09,53,20.20
2017,06,26,09,54,20.20
2017,06,26,09,55,20.20
2017,06,26,09,56,20.20
2017,06,26,09,57,20.30
2017,06,26,09,58,20.20
2017,06,26,09,59,20.20
2017,06,26,10,00,20.20
2017,06,26,10,01,20.20
2017,06,26,10,02,20.20
2017,06,26,10,03,20.20
2017,06,26,10,04,20.20
2017,06,26,10,05,20.20
2017,06,26,10,06,20.10
2017,06,26,10,07,20.10
2017,06,26,10,08,20.10
2017,06,26,10,09,20.00
2017,06,26,10,10,20.00
2017,06,26,10,11,20.00
2017,06,26,10,12,20.00
2017,06,26,10,13,19.90
2017,06,26,10,14,20.00
2017,06,26,10,15,20.00
2017,06,26,10,16,20.10
2017,06,26,10,17,20.10
2017,06,26,10,18,20.10
2017,06,26,10,19,20.10
2017,06,26,10,20,20.00
2017,06,26,10,21,20.00
2017,06,26,10,22,19.90
2017,06,26,10,23,19.90
2017,06,26,10,24,19.90
2017,06,26,10,25,20.00
2017,06,26,10,26,20.00
2017,06,26,10,27,20.10
2017,06,26,10,28,20.30
2017,06,26,10,29,20.40
2017,06,26,10,30,20.50
2017,06,26,10,31,20.60
2017,06,26,10,32,20.70
2017,06,26,10,33,20.70
2017,06,26,10,34,20.60
2017,06,26,10,35,20.60
2017,06,26,10,36,20.50
2017,06,26,10,37,20.50
2017,06,26,10,38,20.40
2017,06,26,10,39,20.40
2017,06,26,10,40,20.30
2017,06,26,10,41,20.30
2017,06,26,10,42,20.30
2017,06,26,10,43,20.40
2017,06,26,10,44,20.50
2017,06,26,10,45,20.50
2017,06,26,10,46,20.60
2017,06,26,10,47,20.60
2017,06,26,10,48,20.70
2017,06,26,10,49,20.80
2017,06,26,10,50,20.90
2017,06,26,10,51,20.90
2017,06,26,10,52,20.80
2017,06,26,10,53,20.70
2017,06,26,10,54,20.70
2017,06,26,10,55,20.60
2017,06,26,10,56,20.50
2017,06,26,10,57,20.50
2017,06,26,10,58,20.40
2017,06,26,10,59,20.40
2017,06,26,11,00,20.40
2017,06,26,11,01,20.40
2017,06,26,11,02,20.30
2017,06,26,11,03,20.30
2017,06,26,11,04,20.20
2017,06,26,11,05,20.10
2017,06,26,11,06,20.00
2017,06,26,11,07,19.90
2017,06,26,11,08,19.80
2017,06,26,11,09,19.70
2017,06,26,11,10,19.70
2017,06,26,11,11,19.70
2017,06,26,11,12,19.70
2017,06,26,11,13,19.70
2017,06,26,11,14,19.80
2017,06,26,11,15,19.80
2017,06,26,11,16,19.80
2017,06,26,11,17,19.80
2017,06,26,11,18,19.70
2017,06,26,11,19,19.70
2017,06,26,11,20,19.70
2017,06,26,11,21,19.60
2017,06,26,11,22,19.50
2017,06,26,11,23,19.40
2017,06,26,11,24,19.40
2017,06,26,11,25,19.40
2017,06,26,11,26,19.40
2017,06,26,11,27,19.50
2017,06,26,11,28,19.50
2017,06,26,11,29,19.60
2017,06,26,11,30,19.70
2017,06,26,11,31,19.80
2017,06,26,11,32,19.90
2017,06,26,11,33,20.00
2017,06,26,11,34,20.10
2017,06,26,11,35,20.20
2017,06,26,11,36,20.30
2017,06,26,11,37,20.40
2017,06,26,11,38,20.40
2017,06,26,11,39,20.40
2017,06,26,11,40,20.40
2017,06,26,11,41,20.30
2017,06,26,11,42,20.20
2017,06,26,11,43,19.90
2017,06,26,11,44,19.70
2017,06,26,11,45,19.50
2017,06,26,11,46,19.30
2017,06,26,11,47,19.20
2017,06,26,11,48,19.20
2017,06,26,11,49,19.10
2017,06,26,11,50,19.10
2017,06,26,11,51,18.90
2017,06,26,11,52,18.80
2017,06,26,11,53,18.70
2017,06,26,11,54,18.70
2017,06,26,11,55,18.60
2017,06,26,11,56,18.60
2017,06,26,11,57,18.60
2017,06,26,11,58,18.60
2017,06,26,11,59,18.70
2017,06,26,12,00,18.80
2017,06,26,12,01,18.80
2017,06,26,12,02,18.90
2017,06,26,12,03,19.00
2017,06,26,12,04,19.20
2017,06,26,12,05,19.30
2017,06,26,12,06,19.40
2017,06,26,12,07,19.50
2017,06,26,12,08,19.50
2017,06,26,12,09,19.40
2017,06,26,12,10,19.40
2017,06,26,12,11,19.40
2017,06,26,12,12,19.20
2017,06,26,12,13,19.00
2017,06,26,12,14,18.80
2017,06,26,12,15,18.70
2017,06,26,12,16,18.60
2017,06,26,12,17,18.60
2017,06,26,12,18,18.60
2017,06,26,12,19,18.60
2017,06,26,12,20,18.50
2017,06,26,12,21,18.40
2017,06,26,12,22,18.30
2017,06,26,12,23,18.30
2017,06,26,12,24,18.20
2017,06,26,12,25,18.30
2017,06,26,12,26,18.30
2017,06,26,12,27,18.30
2017,06,26,12,28,18.30
2017,06,26,12,29,18.30
2017,06,26,12,30,18.30
2017,06,26,12,31,18.30
2017,06,26,12,32,18.30
2017,06,26,12,33,18.30
2017,06,26,12,34,18.40
2017,06,26,12,35,18.50
2017,06,26,12,36,18.50
2017,06,26,12,37,18.60
2017,06,26,12,38,18.70
2017,06,26,12,39,18.80
2017,06,26,12,40,18.90
2017,06,26,12,41,18.90
2017,06,26,12,42,18.90
2017,06,26,12,43,19.00
2017,06,26,12,44,19.10
2017,06,26,12,45,19.20
2017,06,26,12,46,19.30
2017,06,26,12,47,19.40
2017,06,26,12,48,19.40
2017,06,26,12,49,19.30
2017,06,26,12,50,19.20
2017,06,26,12,51,19.20
2017,06,26,12,52,19.30
2017,06,26,12,53,19.30
2017,06,26,12,54,19.30
2017,06,26,12,55,19.30
2017,06,26,12,56,19.30
2017,06,26,12,57,19.30
2017,06,26,12,58,19.30
2017,06,26,12,59,19.20
2017,06,26,13,00,19.20
2017,06,26,13,01,19.00
2017,06,26,13,02,18.90
2017,06,26,13,03,18.90
2017,06,26,13,04,18.90
2017,06,26,13,05,18.90
2017,06,26,13,06,18.90
2017,06,26,13,07,18.90
2017,06,26,13,08,18.70
2017,06,26,13,09,18.50
2017,06,26,13,10,18.30
2017,06,26,13,11,18.10
2017,06,26,13,12,17.90
2017,06,26,13,13,17.70
2017,06,26,13,14,17.60
2017,06,26,13,15,17.50
2017,06,26,13,16,17.40
2017,06,26,13,17,17.30
2017,06,26,13,18,17.30
2017,06,26,13,19,17.30
2017,06,26,13,20,17.30
2017,06,26,13,21,17.30
2017,06,26,13,22,17.20
2017,06,26,13,23,17.20
2017,06,26,13,24,17.20
2017,06,26,13,25,17.20
2017,06,26,13,26,17.20
2017,06,26,13,27,17.20
2017,06,26,13,28,17.20
2017,06,26,13,29,17.20
2017,06,26,13,30,17.30
2017,06,26,13,31,17.30
2017,06,26,13,32,17.40
2017,06,26,13,33,17.50
2017,06,26,13,34,17.60
2017,06,26,13,35,17.60
2017,06,26,13,36,17.70
2017,06,26,13,37,17.80
2017,06,26,13,38,17.90
2017,06,26,13,39,18.00
2017,06,26,13,40,18.10
2017,06,26,13,41,18.20
2017,06,26,13,42,18.30
2017,06,26,13,43,18.50
2017,06,26,13,44,18.60
2017,06,26,13,45,18.70
2017,06,26,13,46,18.80
2017,06,26,13,47,18.80
2017,06,26,13,48,18.80
2017,06,26,13,49,18.90
2017,06,26,13,50,18.90
2017,06,26,13,51,18.90
2017,06,26,13,52,19.00
2017,06,26,13,53,19.00
2017,06,26,13,54,19.10
2017,06,26,13,55,19.20
2017,06,26,13,56,19.30
2017,06,26,13,57,19.30
2017,06,26,13,58,19.40
2017,06,26,13,59,19.40
2017,06,26,14,00,19.40
2017,06,26,14,01,19.50
2017,06,26,14,02,19.50
2017,06,26,14,03,19.60
2017,06,26,14,04,19.70
2017,06,26,14,05,19.70
2017,06,26,14,06,19.80
2017,06,26,14,07,19.90
2017,06,26,14,08,20.00
2017,06,26,14,09,20.10
2017,06,26,14,10,20.20
2017,06,26,14,11,20.30
2017,06,26,14,12,20.40
2017,06,26,14,13,20.50
2017,06,26,14,14,20.60
2017,06,26,14,15,20.80
2017,06,26,14,16,20.80
2017,06,26,14,17,20.90
2017,06,26,14,18,21.00
2017,06,26,14,19,21.10
2017,06,26,14,20,21.20
2017,06,26,14,21,21.30
2017,06,26,14,22,21.40
2017,06,26,14,23,21.40
2017,06,26,14,24,21.40
2017,06,26,14,25,21.50
2017,06,26,14,26,21.60
2017,06,26,14,27,21.80
2017,06,26,14,28,21.90
2017,06,26,14,29,22.10
2017,06,26,14,30,22.30
2017,06,26,14,31,22.40
2017,06,26,14,32,22.50
2017,06,26,14,33,22.60
2017,06,26,14,34,22.60
2017,06,26,14,35,22.70
2017,06,26,14,36,22.80
2017,06,26,14,37,23.00
2017,06,26,14,38,23.20
2017,06,26,14,39,23.50
2017,06,26,14,40,23.70
2017,06,26,14,41,23.90
2017,06,26,14,42,24.00
2017,06,26,14,43,24.00
2017,06,26,14,44,24.10
2017,06,26,14,45,24.10
2017,06,26,14,46,24.10
2017,06,26,14,47,24.10
2017,06,26,14,48,24.10
2017,06,26,14,49,24.10
2017,06,26,14,50,24.10
2017,06,26,14,51,24.20
2017,06,26,14,52,24.20
2017,06,26,14,53,24.20
2017,06,26,14,54,24.30
2017,06,26,14,55,24.40
2017,06,26,14,56,24.50
2017,06,26,14,57,24.60
2017,06,26,14,58,24.70
2017,06,26,14,59,24.80
2017,06,26,15,00,24.90
2017,06,26,15,01,25.10
2017,06,26,15,02,25.20
2017,06,26,15,03,25.30
2017,06,26,15,04,25.50
2017,06,26,15,05,25.60
2017,06,26,15,06,25.70
2017,06,26,15,07,25.80
2017,06,26,15,08,25.90
2017,06,26,15,09,25.90
2017,06,26,15,10,26.00
2017,06,26,15,11,26.10
2017,06,26,15,12,26.20
2017,06,26,15,13,26.20
2017,06,26,15,14,26.20
2017,06,26,15,15,26.20
2017,06,26,15,16,26.20
2017,06,26,15,17,26.30
2017,06,26,15,18,26.30
2017,06,26,15,19,26.30
2017,06,26,15,20,26.30
2017,06,26,15,21,26.20
2017,06,26,15,22,26.20
2017,06,26,15,23,26.20
2017,06,26,15,24,26.20
2017,06,26,15,25,26.10
2017,06,26,15,26,26.00
2017,06,26,15,27,25.90
2017,06,26,15,28,25.80
2017,06,26,15,29,25.80
2017,06,26,15,30,25.70
2017,06,26,15,31,25.70
2017,06,26,15,32,25.70
2017,06,26,15,33,25.70
2017,06,26,15,34,25.60
2017,06,26,15,35,25.70
2017,06,26,15,36,25.70
2017,06,26,15,37,25.70
2017,06,26,15,38,25.70
2017,06,26,15,39,25.80
2017,06,26,15,40,25.80
2017,06,26,15,41,25.80
2017,06,26,15,42,25.80
2017,06,26,15,43,25.90
2017,06,26,15,44,25.90
2017,06,26,15,45,25.90
2017,06,26,15,46,26.10
2017,06,26,15,47,26.20
2017,06,26,15,48,26.00
2017,06,26,15,49,25.80
2017,06,26,15,50,25.70
2017,06,26,15,51,25.60
2017,06,26,15,52,25.60
2017,06,26,15,53,25.50
2017,06,26,15,54,25.40
2017,06,26,15,55,25.30
2017,06,26,15,56,25.30
2017,06,26,15,57,25.30
2017,06,26,15,58,25.30
2017,06,26,15,59,25.20
2017,06,26,16,00,25.20
2017,06,26,16,01,25.20
2017,06,26,16,02,25.30
2017,06,26,16,03,25.30
2017,06,26,16,04,25.30
2017,06,26,16,05,25.40
2017,06,26,16,06,25.30
2017,06,26,16,07,25.30
2017,06,26,16,08,25.20
2017,06,26,16,09,25.20
2017,06,26,16,10,25.20
2017,06,26,16,11,25.20
2017,06,26,16,12,25.20
2017,06,26,16,13,25.20
2017,06,26,16,14,25.20
2017,06,26,16,15,25.20
2017,06,26,16,16,25.30
2017,06,26,16,17,25.30
2017,06,26,16,18,25.40
2017,06,26,16,19,25.40
2017,06,26,16,20,25.50
2017,06,26,16,21,25.60
2017,06,26,16,22,25.70
2017,06,26,16,23,25.80
2017,06,26,16,24,25.60
2017,06,26,16,25,25.40
2017,06,26,16,26,25.30
2017,06,26,16,27,25.30
2017,06,26,16,28,25.20
2017,06,26,16,29,25.00
2017,06,26,16,30,24.90
2017,06,26,16,31,25.00
2017,06,26,16,32,25.10
2017,06,26,16,33,25.20
2017,06,26,16,34,25.10
2017,06,26,16,35,25.00
2017,06,26,16,36,24.90
2017,06,26,16,37,24.80
2017,06,26,16,38,24.90
2017,06,26,16,39,25.10
2017,06,26,16,40,25.10
2017,06,26,16,41,25.20
2017,06,26,16,42,25.20
2017,06,26,16,43,25.20
2017,06,26,16,44,25.20
2017,06,26,16,45,25.20
2017,06,26,16,46,25.10
2017,06,26,16,47,25.10
2017,06,26,16,48,24.90
2017,06,26,16,49,24.70
2017,06,26,16,50,24.70
2017,06,26,16,51,24.60
2017,06,26,16,52,24.50
2017,06,26,16,53,24.40
2017,06,26,16,54,24.30
2017,06,26,16,55,24.40
2017,06,26,16,56,24.40
2017,06,26,16,57,24.50
2017,06,26,16,58,24.50
2017,06,26,16,59,24.60
2017,06,26,17,00,24.60
2017,06,26,17,01,24.70
2017,06,26,17,02,24.70
2017,06,26,17,03,24.80
2017,06,26,17,04,24.80
2017,06,26,17,05,24.90
2017,06,26,17,06,25.00
2017,06,26,17,07,25.10
2017,06,26,17,08,25.20
2017,06,26,17,09,25.30
2017,06,26,17,10,25.30
2017,06,26,17,11,25.20
2017,06,26,17,12,25.10
2017,06,26,17,13,25.00
2017,06,26,17,14,24.90
2017,06,26,17,15,24.80
2017,06,26,17,16,24.70
2017,06,26,17,17,24.60
2017,06,26,17,18,24.60
2017,06,26,17,19,24.60